Location: Newark
(44.1667°N, 8.2500°E)
Time: 23:26:53
(UTC+00:00)

Vanguard 2 - Pass Details

Date: 13 December 2019
Orbit: 553 x 2938 km, 32.9° (Epoch: 21 January)

Event Time Altitude Azimuth Distance (km) Brightness Sun altitude
Exits shadow 04:43:25 24° 257° (WSW) 4,694 10.9 -22.4°
Maximum altitude 04:54:19 46° 203° (SSW) 3,504 10.7 -20.5°
Drops below altitude 10° 05:08:20 10° 136° (SE) 4,917 12.5 -18.1°
Sets 05:11:53 0° 130° (SE) 5,646 13.2 -17.4°
